| time (UTC) | temp F | wind direction | speed knots | gust knots | rain 1hr in | rain 24hr in | rain mn in | humidity % | barometer mb |
| 20260508063149 | 46 | 299 | 1.7 | 3.5 | 0.00 | 0.18 | 0.00 | 77 | 1010.2 |
| 20260508060149 | 45 | 0 | 0.0 | 0.0 | 0.00 | 0.20 | 0.00 | 84 | 1009.7 |
| 20260508053149 | 45 | 0 | 0.0 | 0.0 | 0.00 | 0.20 | 0.00 | 85 | 1009.8 |
| 20260508050150 | 45 | 0 | 0.0 | 0.0 | 0.00 | 0.20 | 0.00 | 83 | 1009.8 |
| 20260508043149 | 45 | 0 | 0.0 | 0.0 | 0.00 | 0.20 | 0.00 | 82 | 1010.0 |
| 20260508040149 | 46 | 0 | 0.0 | 0.0 | 0.00 | 0.20 | 0.00 | 81 | 1010.2 |
| 20260508033149 | 47 | 0 | 0.0 | 0.0 | 0.00 | 0.20 | 0.20 | 77 | 1010.2 |
| 20260508030222 | 47 | 0 | 0.0 | 0.0 | 0.00 | 0.20 | 0.20 | 74 | 1010.2 |
| 20260508030149 | 47 | 0 | 0.0 | 0.0 | 0.00 | 0.20 | 0.20 | 74 | 1010.2 |
| 20260508020149 | 50 | 0 | 0.0 | 0.0 | 0.00 | 0.20 | 0.20 | 63 | 1010.1 |
| 20260508013149 | 53 | 0 | 0.0 | 0.0 | 0.00 | 0.20 | 0.20 | 57 | 1009.7 |
| 20260508010150 | 54 | 0 | 0.0 | 0.0 | 0.00 | 0.20 | 0.20 | 54 | 1009.7 |
| 20260508003149 | 56 | 0 | 0.0 | 0.0 | 0.00 | 0.20 | 0.20 | 48 | 1008.9 |
| 20260507230151 | 60 | 313 | 0.9 | 7.8 | 0.00 | 0.20 | 0.20 | 41 | 1008.1 |
| 20260507220150 | 63 | 304 | 1.7 | 6.1 | 0.00 | 0.20 | 0.20 | 39 | 1008.0 |
| 20260507210150 | 63 | 21 | 2.6 | 7.8 | 0.00 | 0.20 | 0.20 | 38 | 1007.6 |
| 20260507200150 | 62 | 16 | 3.5 | 8.7 | 0.00 | 0.21 | 0.20 | 38 | 1007.8 |
| 20260507190150 | 63 | 21 | 3.5 | 7.8 | 0.00 | 0.21 | 0.20 | 37 | 1008.3 |
| 20260507180150 | 62 | 355 | 2.6 | 6.1 | 0.00 | 0.26 | 0.20 | 40 | 1008.8 |
| 20260507170150 | 62 | 356 | 0.9 | 6.1 | 0.00 | 0.29 | 0.20 | 39 | 1009.5 |
| 20260507160150 | 59 | 7 | 2.6 | 6.1 | 0.00 | 0.30 | 0.20 | 43 | 1010.1 |
| 20260507150151 | 57 | 309 | 2.6 | 7.8 | 0.00 | 0.30 | 0.20 | 44 | 1010.4 |
| 20260507140150 | 55 | 3 | 1.7 | 7.0 | 0.00 | 0.30 | 0.20 | 52 | 1010.7 |
| 20260507130150 | 52 | 298 | 3.5 | 8.7 | 0.00 | 0.30 | 0.20 | 63 | 1010.7 |
| 20260507110150 | 48 | 347 | 0.9 | 6.1 | 0.00 | 0.30 | 0.20 | 95 | 1010.0 |
| 20260507100151 | 49 | 199 | 0.0 | 0.9 | 0.03 | 0.30 | 0.20 | 95 | 1009.4 |
| 20260507093149 | 49 | 0 | 0.0 | 0.0 | 0.04 | 0.28 | 0.18 | 95 | 1009.1 |
| 20260507083149 | 49 | 348 | 0.0 | 2.6 | 0.03 | 0.24 | 0.14 | 95 | 1008.8 |
| 20260507080150 | 50 | 350 | 0.9 | 3.5 | 0.06 | 0.22 | 0.12 | 95 | 1008.9 |
| 20260507070149 | 52 | 349 | 0.0 | 1.7 | 0.05 | 0.15 | 0.05 | 95 | 1008.9 |